This demonstration page uses our WeatherBlox Daily Observations layout. Learn more.

Left ArrowRight Arrow

40.92945, -100.16068

Hourly Observations for August 22, 2020

Temp ( °F °C ) Dew Point ( °F °C ) Humidity (%) Winds ( mph kmh ) Pressure ( in mb ) Visibility ( mi km ) Precip ( " mm )
12:15 am 00:15 Clear 71 21.7 64 17.8 79 79 SSE 5 7 29.81 1009 10 16 N/A
12:35 am 00:35 Clear 70 21.3 64 17.6 80 80 S 3 6 29.82 1010 10 16 N/A
12:55 am 00:55 Clear 70 21 64 17.7 82 82 SSE 5 7 29.81 1010 10 16 N/A
1:15 am 01:15 Clear 70 21.1 64 17.8 82 82 SSE 6 9 29.81 1010 10 16 N/A
1:35 am 01:35 Clear 70 20.9 64 17.8 83 83 S 6 9 29.81 1010 10 16 N/A
1:55 am 01:55 Clear 69 20.5 64 17.5 83 83 S 5 7 29.82 1010 10 16 N/A
2:15 am 02:15 Clear 70 21.1 64 17.6 81 81 SSE 5 7 29.81 1010 10 16 N/A
2:35 am 02:35 Clear 69 20.8 64 17.5 82 82 S 5 7 29.82 1010 10 16 N/A
2:55 am 02:55 Clear 69 20.4 64 17.5 84 84 N N/A 29.82 1010 10 16 N/A
3:15 am 03:15 Clear 69 20.3 64 17.5 84 84 S 3 6 29.82 1010 10 16 N/A
3:35 am 03:35 Clear 68 19.9 63 17.1 84 84 SW 3 6 29.82 1010 10 16 N/A
3:55 am 03:55 Clear 69 20.5 64 17.5 83 83 SW 6 9 29.82 1010 10 16 N/A
4:15 am 04:15 Clear 66 18.9 62 16.5 86 86 N N/A 29.83 1010 10 16 N/A
4:35 am 04:35 Clear 66 19.1 62 16.8 87 87 E 5 7 29.83 1010 10 16 N/A
4:55 am 04:55 Clear 68 20 63 17.2 84 84 SSE 5 7 29.82 1010 10 16 N/A
5:15 am 05:15 Clear 68 20.1 63 17.1 83 83 SSE 3 6 29.82 1010 10 16 N/A
5:35 am 05:35 Clear 65 18.4 62 16.4 88 88 N N/A 29.84 1010 10 16 N/A
5:55 am 05:55 Clear 65 18.1 62 16.5 90 90 N N/A 29.84 1010 10 16 N/A
6:15 am 06:15 Clear 62 16.9 60 15.6 92 92 N N/A 29.85 1011 10 16 N/A
6:35 am 06:35 Clear 61 16.3 60 15.3 94 94 N N/A 29.85 1011 10 16 N/A
6:55 am 06:55 Clear 61 16.2 60 15.5 96 96 N N/A 29.87 1011 10 16 N/A
7:15 am 07:15 Sunny with Mist and Fog 61 16.2 60 15.4 95 95 N N/A 29.87 1011 5 8 N/A
7:35 am 07:35 Sunny with Mist and Fog 61 16.1 59 15.2 94 94 N N/A 29.87 1011 5 8 N/A
7:50 am 07:50 Sunny with Mist and Fog 62 16.6 60 15.5 93 93 N N/A 29.86 1011 5 8 N/A
8:15 am 08:15 Sunny 65 18.1 62 16.5 90 90 N N/A 29.85 1011 7 11 N/A
8:35 am 08:35 Sunny 67 19.6 63 17 85 85 N N/A 29.85 1011 7 11 N/A
8:55 am 08:55 Sunny 69 20.5 63 17.3 82 82 N N/A 29.84 1010 7 11 N/A
9:15 am 09:15 Sunny 70 21.1 64 17.9 82 82 N N/A 29.83 1010 7 11 N/A
9:35 am 09:35 Sunny 72 22 64 17.8 77 77 N N/A 29.83 1010 7 11 N/A
9:55 am 09:55 Sunny 73 22.9 65 18.1 74 74 N N/A 29.81 1009 10 16 N/A
10:15 am 10:15 Sunny 74 23.6 65 18.6 74 74 N N/A 29.81 1010 10 16 N/A
10:35 am 10:35 Sunny 76 24.6 66 18.8 70 70 N N/A 29.80 1009 10 16 N/A
10:55 am 10:55 Sunny 79 25.9 65 18.6 64 64 S 5 7 29.79 1009 10 16 N/A
11:15 am 11:15 Sunny 80 26.9 67 19.2 63 63 SE 3 6 29.78 1009 10 16 N/A
11:35 am 11:35 Sunny 82 27.6 66 19 59 59 N N/A 29.78 1008 10 16 N/A
11:55 am 11:55 Sunny 84 28.7 66 18.7 55 55 S 5 7 29.77 1008 10 16 N/A
12:15 pm 12:15 Sunny 85 29.3 66 19 54 54 SSE 6 9 29.77 1008 10 16 N/A
12:35 pm 12:35 Sunny 87 30.3 65 18.5 49 49 SE 6 9 29.76 1008 10 16 N/A
12:55 pm 12:55 Sunny 88 31 65 18.6 48 48 SSE 6 9 29.74 1007 10 16 N/A
1:10 pm 13:10 Sunny 89 31.5 66 19 47 47 SE 7 11 29.74 1007 10 16 N/A
1:35 pm 13:35 Sunny 89 31.9 66 18.8 46 46 SSE 7 11 29.73 1007 10 16 N/A
1:55 pm 13:55 Sunny 91 32.5 66 19 45 45 SE 9 15 29.73 1007 10 16 N/A
2:15 pm 14:15 Sunny 91 32.5 66 18.9 44 44 SE 8 13 29.73 1007 10 16 N/A
2:35 pm 14:35 Sunny 91 32.8 66 18.9 44 44 SE 8 13 29.72 1006 10 16 N/A
2:55 pm 14:55 Sunny 92 33.1 65 18.5 42 42 SE 9 15 29.72 1006 10 16 N/A
3:15 pm 15:15 Sunny 93 33.8 64 17.7 38 38 SSE 9 15 29.71 1006 10 16 N/A
3:35 pm 15:35 Sunny 93 33.7 64 17.7 39 39 SSE 10 17 29.71 1006 10 16 N/A
3:55 pm 15:55 Sunny 93 33.9 64 17.7 38 38 SE 9 15 29.71 1006 10 16 N/A
4:15 pm 16:15 Sunny 93 33.8 62 16.6 36 36 SSE 9 15 29.70 1006 10 16 N/A
4:35 pm 16:35 Sunny 93 33.7 62 16.8 36 36 SSE 9 15 29.70 1006 10 16 N/A
4:55 pm 16:55 Sunny 93 33.8 63 17.3 37 37 SSE 8 13 29.70 1006 10 16 N/A
5:15 pm 17:15 Sunny 93 34.1 62 16.7 35 35 SSE 9 15 29.70 1006 10 16 N/A
5:35 pm 17:35 Sunny 92 33.4 64 17.7 39 39 SSE 9 15 29.70 1006 10 16 N/A
5:55 pm 17:55 Sunny 92 33.4 64 17.8 39 39 SSE 8 13 29.70 1006 10 16 N/A
6:15 pm 18:15 Sunny 91 33 65 18.6 42 42 SSE 8 13 29.71 1006 10 16 N/A
6:35 pm 18:35 Sunny 91 32.7 65 18.5 43 43 SE 8 13 29.71 1006 10 16 N/A
6:55 pm 18:55 Sunny 90 32.4 66 18.8 44 44 SE 7 11 29.71 1006 10 16 N/A
7:15 pm 19:15 Sunny 89 31.9 66 19.1 47 47 ESE 8 13 29.71 1006 10 16 N/A
7:35 pm 19:35 Sunny 88 31.1 67 19.7 51 51 SE 7 11 29.72 1006 10 16 N/A
7:55 pm 19:55 Sunny 87 30.4 67 19.7 53 53 SE 7 11 29.74 1007 10 16 N/A
8:15 pm 20:15 Sunny 85 29.6 68 19.8 56 56 SE 7 11 29.74 1007 10 16 N/A
8:35 pm 20:35 Clear 84 28.7 68 20 59 59 SE 5 7 29.75 1007 10 16 N/A
8:55 pm 20:55 Clear 81 27 67 19.6 64 64 SE 3 6 29.77 1008 10 16 N/A
9:15 pm 21:15 Clear 80 26.5 67 19.5 65 65 SE 5 7 29.78 1008 10 16 N/A
9:35 pm 21:35 Clear 80 26.4 68 19.8 67 67 SE 5 7 29.79 1009 10 16 N/A
9:55 pm 21:55 Clear 79 25.9 67 19.6 68 68 SE 5 7 29.79 1009 10 16 N/A
10:15 pm 22:15 Clear 77 25 67 19.2 70 70 SE 5 7 29.81 1009 10 16 N/A
10:35 pm 22:35 Clear 76 24.5 66 19 72 72 SSE 6 9 29.81 1010 10 16 N/A
10:55 pm 22:55 Clear 74 23.5 65 18.5 74 74 SSE 5 7 29.83 1010 10 16 N/A
11:15 pm 23:15 Clear 75 23.7 65 18.1 71 71 SSE 6 9 29.83 1010 10 16 N/A
11:35 pm 23:35 Clear 74 23.6 64 17.6 69 69 SSE 5 7 29.83 1010 10 16 N/A
11:55 pm 23:55 Clear 74 23.5 63 17.3 68 68 S 5 7 29.84 1011 10 16 N/A

Powered by AerisWeather